Location: Marcé
(47.5801°N, 0.3280°W)
Time: 15:10:32
(UTC+01:00)

Transit 2A Rocket - Visible Passes

Search period start: 09 December 2021 00:00
Search period end: 19 December 2021 00:00
Orbit: 584 x 918 km, 66.7° (Epoch: 08 December)

Date Brightness Start Highest point End Pass type
(mag) Time Alt. Az. Time Alt. Az. Time Alt. Az.
09 Dec 8.5 05:37:10 10° ESE 05:37:56 10° E 05:38:44 10° E visible
09 Dec 5.9 07:13:39 10° SSW 07:19:17 61° ESE 07:25:17 10° NE visible
10 Dec 6.7 06:31:31 10° S 06:36:47 39° ESE 06:42:21 10° NE visible
11 Dec 7.5 05:49:53 10° SSE 05:54:25 25° ESE 05:59:09 10° NE visible
11 Dec 5.3 07:30:44 10° SW 07:36:31 70° NW 07:42:39 10° NNE visible
12 Dec 8.0 05:09:00 10° SE 05:12:09 15° ESE 05:15:23 10° ENE visible
12 Dec 5.4 06:48:00 10° SSW 06:53:47 80° ESE 06:59:55 10° NE visible
13 Dec 6.1 06:05:38 10° S 06:11:12 52° ESE 06:17:06 10° NE visible
13 Dec 5.8 07:48:36 10° WSW 07:54:05 38° NW 07:59:49 10° NNE visible
14 Dec 6.8 05:23:40 10° S 05:28:44 33° ESE 05:34:05 10° NE visible
14 Dec 5.4 07:05:25 10° SW 07:11:09 55° NW 07:17:12 10° NNE visible
15 Dec 7.5 04:44:13 17° SE 04:46:25 21° ESE 04:50:45 10° ENE visible
15 Dec 5.2 06:24:14 21° SW 06:28:21 80° NW 06:34:31 10° NNE visible
15 Dec 6.4 08:07:11 10° W 08:11:58 24° NNW 08:16:52 10° NNE visible
16 Dec 8.0 04:04:17 12° E 04:04:17 12° E 04:06:31 10° ENE visible
16 Dec 5.5 05:44:16 51° S 05:45:40 69° ESE 05:51:46 10° NE visible
16 Dec 6.1 07:24:16 13° W 07:28:51 32° NW 07:34:17 10° NNE visible
17 Dec 6.3 05:03:53 42° E 05:03:53 42° E 05:08:53 10° NE visible
17 Dec 5.7 06:43:50 33° W 06:45:51 43° NW 06:51:42 10° NNE visible
18 Dec 7.5 04:23:13 21° ENE 04:23:13 21° ENE 04:25:46 10° NE visible
18 Dec 5.3 06:03:09 62° NW 06:03:09 62° NW 06:09:05 10° NNE visible
18 Dec 6.7 07:43:06 12° WNW 07:46:51 21° NNW 07:51:21 10° NNE visible
